Regional Weather Roundup
Issued by NWS Nashville, TN

Home | Current Version | Previous Version | Text Only | Print | Product List | Glossary On
Versions: 1 2 3 4 5 6 7 8 9 10 11 12 13 14 15 16 17 18 19 20 21 22 23 24 25 26 27 28 29 30 31 32 33 34 35 36 37 38 39 40 41 42 43 44 45 46 47 48 49 50
000
ASUS44 KOHX 241310
RWROHX
MIDDLE TENNESSEE HOURLY WEATHER ROUNDUP
NATIONAL WEATHER SERVICE NASHVILLE TN
700 AM CST FRI FEB 24 2017

NOTE: "FAIR" INDICATES FEW OR NO CLOUDS BELOW 12,000 FEET WITH
NO SIGNIFICANT WEATHER AND/OR OBSTRUCTIONS TO VISIBILITY.

* THESE REPORTS ARE NOT UNDER NWS QUALITY CONTROL AND MAY NOT
  REPORT WEATHER SUCH AS PRECIPITATION AND FOG.


TNZ005>011-023>034-057-059-062>066-078-080-241400
...NORTHERN MIDDLE TENNESSEE...

CITY           SKY/WX    TMP DP  RH WIND       PRES   REMARKS
CLARKSVILLE    CLEAR     63  55  75 S10       29.69F
CROSSVILLE     CLEAR     59  50  72 S8G17     29.85S
GALLATIN       MOCLDY    63  55  77 S7        29.79R
DICKSON        CLEAR     61  56  83 S15       29.72R
LIVINGSTON     PTCLDY    64  51  62 S10       29.80R
NASHVILLE      PTCLDY    63  56  78 S10       29.76R
PORTLAND       CLEAR     61  55  82 S12G21    29.74S
SMYRNA         CLEAR     60  55  83 SE5       29.78R
SPARTA         PTCLDY    63  52  67 S9G16     29.80R
SPRINGFIELD    CLEAR     63  57  82 S12       29.71S
WEST NASHVILLE CLEAR     63  55  77 S8        29.74R
$$
TNZ056-058-060-061-075>077-079-093>097-241400
...SOUTHERN MIDDLE TENNESSEE...

CITY           SKY/WX    TMP DP  RH WIND       PRES   REMARKS
COLUMBIA       CLEAR     63  63 100 S10       29.74S
FAYETTEVILLE   CLEAR     61  55  82 S10       29.81R
LEWISBURG      CLEAR     62  56  81 S9        29.77
MCMINNVILLE    CLEAR     64  55  72 S7        29.81R
MURFREESBORO   CLEAR     62  54  75 S8        29.77S
SHELBYVILLE    CLEAR     63  57  82 S9        29.80R
TULLAHOMA      CLEAR     59  54  82 S6        29.82R
WINCHESTER     CLEAR     61  54  77 S8        29.83R
$$


...KEY TO REMARKS...
VSB - VISIBILITY IN MILES
WCI - WIND CHILL INDEX
HX  - HEAT INDEX




USA.gov is the U.S. government's official web portal to all federal, state and local government web resources and services.